FDX266 MMGL-KOAK

Flight info

Callsign FDX266
Flight time N/A
Altitude 34000
Route SEDEM1B SEDEM UJ3 LMM DCT AXASA UT41 ASUTA J93 PDZ DCT COREZ DCT RGOOD EMZOH4
Aircraft B77L/H-SDE1E2E3FGHIJ2J3J4J5M1RWXY/LB1D1

Departure

Time 2026-04-29 23:54
Airport Guadalajara International Airport (MMGL)

Arrival

Time N/A
Airport San Francisco Bay Oakland International Airport (KOAK)
Time Latitude Longitude Altitude Speed Heading
2026-04-29 23:44 20.52268 -103.29645 5024 ft 0 kts 19°
2026-04-29 23:48 20.52245 -103.29655 5021 ft 4 kts 33°
2026-04-29 23:49 20.52226 -103.29673 5016 ft 4 kts 58°
2026-04-29 23:49 20.52217 -103.29699 5022 ft 4 kts 98°
2026-04-29 23:49 20.52219 -103.29706 5023 ft 0 kts 108°
2026-04-29 23:51 20.52202 -103.29654 5017 ft 11 kts 108°
2026-04-29 23:51 20.52178 -103.29575 5019 ft 13 kts 109°
2026-04-29 23:51 20.52126 -103.29482 5021 ft 14 kts 144°
2026-04-29 23:52 20.52031 -103.29487 5022 ft 14 kts 200°
2026-04-29 23:52 20.51935 -103.29497 5022 ft 14 kts 151°
2026-04-29 23:52 20.51851 -103.29396 5021 ft 24 kts 126°
2026-04-29 23:52 20.51751 -103.29250 5022 ft 24 kts 126°
2026-04-29 23:53 20.51653 -103.29166 5021 ft 17 kts 184°
2026-04-29 23:53 20.51530 -103.29220 5021 ft 20 kts 205°
2026-04-29 23:53 20.51439 -103.29299 5017 ft 16 kts 257°
2026-04-29 23:53 20.51523 -103.29539 5020 ft 68 kts 294°
2026-04-29 23:54 20.51693 -103.29949 5020 ft 114 kts 293°
2026-04-29 23:54 20.52106 -103.30932 5027 ft 174 kts 294°
2026-04-29 23:54 20.52666 -103.32236 5251 ft 202 kts 292°
2026-04-29 23:54 20.53293 -103.33645 5701 ft 215 kts 294°
2026-04-29 23:55 20.53944 -103.35104 6210 ft 226 kts 295°
2026-04-29 23:55 20.54766 -103.36633 6387 ft 252 kts 310°
2026-04-29 23:55 20.56020 -103.38009 6933 ft 265 kts 316°
2026-04-29 23:55 20.57404 -103.39386 7412 ft 278 kts 316°
2026-04-29 23:56 20.58816 -103.40787 8251 ft 276 kts 316°
2026-04-29 23:56 20.60224 -103.42193 9020 ft 278 kts 315°
2026-04-29 23:56 20.61646 -103.43633 9694 ft 284 kts 314°
2026-04-29 23:56 20.63085 -103.45110 10324 ft 291 kts 315°
2026-04-29 23:57 20.64591 -103.46664 10568 ft 314 kts 315°
2026-04-29 23:57 20.66222 -103.48355 10744 ft 339 kts 315°
2026-04-29 23:57 20.67976 -103.50181 10833 ft 365 kts 316°
2026-04-29 23:57 20.69845 -103.52135 11116 ft 384 kts 317°
2026-04-29 23:58 20.71778 -103.54158 11670 ft 394 kts 317°
2026-04-29 23:58 20.73753 -103.56226 12293 ft 401 kts 317°
2026-04-29 23:58 20.75755 -103.58336 12836 ft 408 kts 317°
2026-04-29 23:58 20.77787 -103.60477 13492 ft 413 kts 318°
2026-04-29 23:59 20.79853 -103.62645 14118 ft 418 kts 317°
2026-04-29 23:59 20.81934 -103.64836 14831 ft 421 kts 317°
2026-04-29 23:59 20.84015 -103.67026 15651 ft 420 kts 317°
2026-04-29 23:59 20.86104 -103.69229 16340 ft 422 kts 316°
2026-04-30 00:00 20.88201 -103.71444 17033 ft 425 kts 316°
2026-04-30 00:00 20.90317 -103.73672 17725 ft 429 kts 316°
2026-04-30 00:00 20.92453 -103.75923 18294 ft 433 kts 316°
2026-04-30 00:00 20.94610 -103.78196 18851 ft 436 kts 316°
2026-04-30 00:01 20.96774 -103.80482 19429 ft 438 kts 316°
2026-04-30 00:01 20.98920 -103.82749 20008 ft 440 kts 315°
2026-04-30 00:01 21.01130 -103.85085 20634 ft 441 kts 315°
2026-04-30 00:01 21.03292 -103.87372 21169 ft 445 kts 315°
2026-04-30 00:02 21.05503 -103.89710 21646 ft 450 kts 315°
2026-04-30 00:02 21.07738 -103.92074 22126 ft 454 kts 315°
2026-04-30 00:02 21.09992 -103.94459 22676 ft 457 kts 315°
2026-04-30 00:02 21.12244 -103.96876 23234 ft 459 kts 314°
2026-04-30 00:03 21.14476 -103.99339 23670 ft 463 kts 313°
2026-04-30 00:03 21.16710 -104.01829 24111 ft 465 kts 313°
2026-04-30 00:03 21.18959 -104.04329 24590 ft 466 kts 313°
2026-04-30 00:03 21.21215 -104.06825 25077 ft 467 kts 313°
2026-04-30 00:04 21.23482 -104.09329 25570 ft 468 kts 312°
2026-04-30 00:04 21.25749 -104.11843 26032 ft 470 kts 312°
2026-04-30 00:04 21.28024 -104.14372 26507 ft 472 kts 313°
2026-04-30 00:04 21.30307 -104.16913 26912 ft 474 kts 313°
2026-04-30 00:05 21.32605 -104.19468 27370 ft 476 kts 313°
2026-04-30 00:05 21.34902 -104.22022 27870 ft 477 kts 311°
2026-04-30 00:05 21.37212 -104.24588 28299 ft 479 kts 311°
2026-04-30 00:05 21.39531 -104.27163 28702 ft 480 kts 312°
2026-04-30 00:06 21.41853 -104.29742 29134 ft 483 kts 312°
2026-04-30 00:06 21.44198 -104.32347 29556 ft 485 kts 312°
2026-04-30 00:06 21.46544 -104.34956 30000 ft 486 kts 312°
2026-04-30 00:06 21.48884 -104.37559 30543 ft 483 kts 311°
2026-04-30 00:07 21.51206 -104.40143 31069 ft 480 kts 312°
2026-04-30 00:07 21.53521 -104.42720 31491 ft 479 kts 312°
2026-04-30 00:07 21.55823 -104.45289 31990 ft 476 kts 312°
2026-04-30 00:07 21.58117 -104.47848 32496 ft 474 kts 312°
2026-04-30 00:08 21.60397 -104.50392 33023 ft 471 kts 312°
2026-04-30 00:08 21.62664 -104.52922 33545 ft 468 kts 312°
2026-04-30 00:08 21.64921 -104.55444 33908 ft 469 kts 312°
2026-04-30 00:09 21.69503 -104.60567 33861 ft 480 kts 312°
2026-04-30 00:09 21.74176 -104.65794 33876 ft 489 kts 312°
2026-04-30 00:10 21.78919 -104.71101 33877 ft 494 kts 312°
2026-04-30 00:10 21.83649 -104.76398 33865 ft 494 kts 312°
2026-04-30 00:11 21.88407 -104.81732 33857 ft 493 kts 312°
2026-04-30 00:11 21.93149 -104.87059 33857 ft 492 kts 312°
2026-04-30 00:12 21.97876 -104.92379 33863 ft 491 kts 312°
2026-04-30 00:12 22.02596 -104.97697 33862 ft 491 kts 312°
2026-04-30 00:13 22.07311 -105.03012 33859 ft 491 kts 312°
2026-04-30 00:13 22.12025 -105.08331 33858 ft 490 kts 311°
2026-04-30 00:14 22.16735 -105.13653 33860 ft 490 kts 311°
2026-04-30 00:14 22.21444 -105.18977 33860 ft 491 kts 311°
2026-04-30 00:15 22.26157 -105.24305 33852 ft 491 kts 311°
2026-04-30 00:15 22.30871 -105.29636 33851 ft 491 kts 311°
2026-04-30 00:16 22.35593 -105.34984 33855 ft 492 kts 311°
2026-04-30 00:16 22.40319 -105.40347 33854 ft 493 kts 311°
2026-04-30 00:17 22.45050 -105.45720 33847 ft 494 kts 311°
2026-04-30 00:17 22.49783 -105.51100 33839 ft 494 kts 311°
2026-04-30 00:18 22.54520 -105.56490 33840 ft 494 kts 311°
2026-04-30 00:18 22.59252 -105.61879 33843 ft 494 kts 311°
2026-04-30 00:19 22.63986 -105.67277 33828 ft 494 kts 311°
2026-04-30 00:19 22.68718 -105.72680 33836 ft 494 kts 310°
2026-04-30 00:20 22.73417 -105.78050 33837 ft 494 kts 310°
2026-04-30 00:20 22.78140 -105.83453 33831 ft 494 kts 310°
2026-04-30 00:21 22.82861 -105.88860 33838 ft 493 kts 310°
2026-04-30 00:21 22.87576 -105.94266 33837 ft 493 kts 310°
2026-04-30 00:22 22.92287 -105.99673 33838 ft 493 kts 310°
2026-04-30 00:22 22.96998 -106.05086 33842 ft 493 kts 311°
2026-04-30 00:23 23.01707 -106.10503 33846 ft 493 kts 311°
2026-04-30 00:23 23.06406 -106.15915 33850 ft 493 kts 311°
2026-04-30 00:24 23.11106 -106.21334 33852 ft 492 kts 311°
2026-04-30 00:24 23.15802 -106.26752 33852 ft 492 kts 311°
2026-04-30 00:25 23.20597 -106.32071 33843 ft 493 kts 312°
2026-04-30 00:25 23.25467 -106.37269 33832 ft 493 kts 312°
2026-04-30 00:26 23.30381 -106.42547 33834 ft 493 kts 312°
2026-04-30 00:26 23.35207 -106.47777 33834 ft 493 kts 311°
2026-04-30 00:27 23.40060 -106.53050 33836 ft 493 kts 311°
2026-04-30 00:27 23.44909 -106.58323 33836 ft 493 kts 311°
2026-04-30 00:28 23.49757 -106.63599 33837 ft 494 kts 311°
2026-04-30 00:28 23.54634 -106.68908 33840 ft 497 kts 311°
2026-04-30 00:29 23.59538 -106.74241 33839 ft 499 kts 311°
2026-04-30 00:29 23.64457 -106.79595 33840 ft 500 kts 311°
2026-04-30 00:30 23.69381 -106.84963 33834 ft 500 kts 311°
2026-04-30 00:30 23.74300 -106.90333 33836 ft 500 kts 311°
2026-04-30 00:31 23.79207 -106.95697 33834 ft 499 kts 311°
2026-04-30 00:31 23.84103 -107.01054 33832 ft 498 kts 311°
2026-04-30 00:32 23.88957 -107.06373 33830 ft 497 kts 311°
2026-04-30 00:32 23.93834 -107.11722 33824 ft 496 kts 311°
2026-04-30 00:33 23.98696 -107.17059 33827 ft 495 kts 311°
2026-04-30 00:33 24.03551 -107.22396 33838 ft 494 kts 311°
2026-04-30 00:34 24.08389 -107.27720 33827 ft 493 kts 311°
2026-04-30 00:34 24.13214 -107.33037 33825 ft 491 kts 311°
2026-04-30 00:35 24.18026 -107.38344 33828 ft 491 kts 311°
2026-04-30 00:35 24.22829 -107.43646 33828 ft 490 kts 311°
2026-04-30 00:36 24.27629 -107.48954 33831 ft 490 kts 311°
2026-04-30 00:36 24.32426 -107.54264 33841 ft 490 kts 310°
2026-04-30 00:37 24.37227 -107.59584 33830 ft 491 kts 310°
2026-04-30 00:37 24.42030 -107.64913 33836 ft 492 kts 310°
2026-04-30 00:38 24.46838 -107.70252 33831 ft 492 kts 310°
2026-04-30 00:38 24.51646 -107.75597 33838 ft 492 kts 310°
2026-04-30 00:39 24.56461 -107.80958 33839 ft 493 kts 310°
2026-04-30 00:39 24.61252 -107.86298 33840 ft 495 kts 310°
2026-04-30 00:40 24.66084 -107.91690 33839 ft 495 kts 310°
2026-04-30 00:40 24.70922 -107.97093 33835 ft 496 kts 310°
2026-04-30 00:41 24.75760 -108.02504 33846 ft 496 kts 310°
2026-04-30 00:41 24.80601 -108.07924 33838 ft 496 kts 310°
2026-04-30 00:42 24.85439 -108.13348 33832 ft 497 kts 310°
2026-04-30 00:42 24.89468 -108.17870 33840 ft 498 kts 310°
2026-04-30 00:43 24.94319 -108.23321 33843 ft 499 kts 310°
2026-04-30 00:43 24.99175 -108.28784 33835 ft 499 kts 310°
2026-04-30 00:44 25.04036 -108.34258 33837 ft 499 kts 310°
2026-04-30 00:44 25.08892 -108.39734 33846 ft 499 kts 310°
2026-04-30 00:45 25.13747 -108.45207 33834 ft 498 kts 310°
2026-04-30 00:45 25.18597 -108.50669 33834 ft 497 kts 310°
2026-04-30 00:46 25.23435 -108.56128 33829 ft 497 kts 310°
2026-04-30 00:46 25.28261 -108.61583 33841 ft 496 kts 310°
2026-04-30 00:47 25.33088 -108.67044 33838 ft 496 kts 310°
2026-04-30 00:47 25.37896 -108.72497 33845 ft 494 kts 310°
2026-04-30 00:48 25.42635 -108.77887 33836 ft 490 kts 309°
2026-04-30 00:48 25.47377 -108.83289 33849 ft 489 kts 309°
2026-04-30 00:49 25.52107 -108.88684 33867 ft 488 kts 309°
2026-04-30 00:49 25.56842 -108.94090 33878 ft 489 kts 309°
2026-04-30 00:50 25.61584 -108.99511 33908 ft 489 kts 309°
2026-04-30 00:50 25.66302 -109.04906 33886 ft 485 kts 309°
2026-04-30 00:51 25.71365 -109.09867 33885 ft 488 kts 318°
2026-04-30 00:51 25.76809 -109.14336 33883 ft 486 kts 317°
2026-04-30 00:52 25.82247 -109.18805 33883 ft 486 kts 317°
2026-04-30 00:52 25.87662 -109.23298 33885 ft 487 kts 317°
2026-04-30 00:53 25.93084 -109.27820 33876 ft 488 kts 317°
2026-04-30 00:53 25.98518 -109.32362 33871 ft 489 kts 317°
2026-04-30 00:54 26.03961 -109.36915 33870 ft 490 kts 317°
2026-04-30 00:54 26.09416 -109.41481 33871 ft 491 kts 317°
2026-04-30 00:55 26.14872 -109.46053 33885 ft 491 kts 317°
2026-04-30 00:55 26.23046 -109.52912 33868 ft 489 kts 316°
2026-04-30 00:56 26.28469 -109.57470 33871 ft 488 kts 316°
2026-04-30 00:56 26.33879 -109.62024 33867 ft 487 kts 316°
2026-04-30 00:57 26.39281 -109.66576 33873 ft 486 kts 316°
2026-04-30 00:57 26.44671 -109.71123 33870 ft 486 kts 316°
2026-04-30 00:58 26.50057 -109.75674 33871 ft 486 kts 316°
2026-04-30 00:58 26.55411 -109.80202 33869 ft 486 kts 315°
2026-04-30 00:59 26.60871 -109.84828 33883 ft 493 kts 315°
2026-04-30 00:59 26.66335 -109.89467 33882 ft 499 kts 316°
2026-04-30 01:00 26.71872 -109.94163 33879 ft 499 kts 316°
2026-04-30 01:00 26.77385 -109.98840 33874 ft 496 kts 316°
2026-04-30 01:01 26.82864 -110.03500 33876 ft 494 kts 316°
2026-04-30 01:01 26.88329 -110.08157 33880 ft 493 kts 316°
2026-04-30 01:02 26.93792 -110.12820 33881 ft 494 kts 316°
2026-04-30 01:02 26.99262 -110.17496 33875 ft 496 kts 316°
2026-04-30 01:03 27.04771 -110.22208 33888 ft 499 kts 316°
2026-04-30 01:03 27.10312 -110.26953 33885 ft 502 kts 316°
2026-04-30 01:04 27.15871 -110.31718 33904 ft 503 kts 316°
2026-04-30 01:04 27.21426 -110.36483 33888 ft 502 kts 316°
2026-04-30 01:05 27.26927 -110.41209 33884 ft 500 kts 316°
2026-04-30 01:05 27.32431 -110.45946 33884 ft 498 kts 316°
2026-04-30 01:06 27.37926 -110.50683 33885 ft 498 kts 316°
2026-04-30 01:06 27.43432 -110.55435 33900 ft 499 kts 316°
2026-04-30 01:07 27.48948 -110.60202 33896 ft 500 kts 316°
2026-04-30 01:07 27.54469 -110.64979 33896 ft 501 kts 316°
2026-04-30 01:08 27.59995 -110.69765 33894 ft 501 kts 316°
2026-04-30 01:08 27.65520 -110.74556 33915 ft 501 kts 315°
2026-04-30 01:09 27.71034 -110.79343 33892 ft 500 kts 315°
2026-04-30 01:09 27.76537 -110.84129 33899 ft 499 kts 314°
2026-04-30 01:10 27.82036 -110.88919 33905 ft 499 kts 314°
2026-04-30 01:10 27.87490 -110.93675 33906 ft 499 kts 314°
2026-04-30 01:11 27.92976 -110.98465 33913 ft 498 kts 315°
2026-04-30 01:11 27.98482 -111.03280 33911 ft 497 kts 315°
2026-04-30 01:12 28.03945 -111.08060 33911 ft 496 kts 315°
2026-04-30 01:12 28.09395 -111.12844 33872 ft 495 kts 314°
2026-04-30 01:13 28.14780 -111.17577 33936 ft 494 kts 314°
2026-04-30 01:13 28.20231 -111.22351 33917 ft 496 kts 314°
2026-04-30 01:14 28.25680 -111.27146 33913 ft 496 kts 314°
2026-04-30 01:14 28.31133 -111.31953 33915 ft 497 kts 314°
2026-04-30 01:15 28.36588 -111.36769 33914 ft 497 kts 314°
2026-04-30 01:15 28.42045 -111.41591 33922 ft 497 kts 314°
2026-04-30 01:16 28.47496 -111.46415 33916 ft 496 kts 314°
2026-04-30 01:16 28.52941 -111.51237 33913 ft 496 kts 314°
2026-04-30 01:17 28.58381 -111.56062 33912 ft 496 kts 314°
2026-04-30 01:17 28.63812 -111.60886 33932 ft 495 kts 314°
2026-04-30 01:18 28.69198 -111.65676 33908 ft 494 kts 314°
2026-04-30 01:18 28.74602 -111.70490 33907 ft 492 kts 314°
2026-04-30 01:19 28.79991 -111.75296 33924 ft 492 kts 314°
2026-04-30 01:19 28.85372 -111.80103 33915 ft 491 kts 314°
2026-04-30 01:20 28.90760 -111.84924 33913 ft 493 kts 314°
2026-04-30 01:20 28.96160 -111.89761 33915 ft 494 kts 314°
2026-04-30 01:21 29.01576 -111.94618 33917 ft 495 kts 314°
2026-04-30 01:21 29.07000 -111.99488 33916 ft 496 kts 314°
2026-04-30 01:22 29.12423 -112.04363 33921 ft 495 kts 313°
2026-04-30 01:22 29.17824 -112.09225 33932 ft 493 kts 313°
2026-04-30 01:23 29.23217 -112.14083 33942 ft 493 kts 314°
2026-04-30 01:23 29.28560 -112.18911 33935 ft 493 kts 313°
2026-04-30 01:24 29.33943 -112.23780 33950 ft 493 kts 314°
2026-04-30 01:24 29.39318 -112.28649 33937 ft 492 kts 314°
2026-04-30 01:25 29.44691 -112.33520 33943 ft 492 kts 314°
2026-04-30 01:25 29.50054 -112.38388 33944 ft 491 kts 314°
2026-04-30 01:26 29.55408 -112.43256 33954 ft 491 kts 313°
2026-04-30 01:26 29.60762 -112.48130 33950 ft 491 kts 313°
2026-04-30 01:27 29.66115 -112.53012 33939 ft 491 kts 313°
2026-04-30 01:27 29.71466 -112.57898 33946 ft 491 kts 313°
2026-04-30 01:28 29.76814 -112.62788 33935 ft 491 kts 313°
2026-04-30 01:28 29.82148 -112.67671 33946 ft 489 kts 313°
2026-04-30 01:29 29.87462 -112.72541 33936 ft 487 kts 313°
2026-04-30 01:29 29.91854 -112.76573 33935 ft 485 kts 313°
2026-04-30 01:30 29.97130 -112.81423 33943 ft 485 kts 313°
2026-04-30 01:30 30.02396 -112.86272 33957 ft 484 kts 312°
2026-04-30 01:31 30.07662 -112.91128 33938 ft 485 kts 312°
2026-04-30 01:31 30.12933 -112.95994 33938 ft 485 kts 312°
2026-04-30 01:32 30.18206 -113.00868 33932 ft 485 kts 312°
2026-04-30 01:32 30.23473 -113.05744 33957 ft 485 kts 312°
2026-04-30 01:33 30.28745 -113.10632 33934 ft 486 kts 312°
2026-04-30 01:33 30.34023 -113.15532 33931 ft 487 kts 312°
2026-04-30 01:34 30.39309 -113.20447 33933 ft 488 kts 312°
2026-04-30 01:34 30.44562 -113.25337 33929 ft 488 kts 312°
2026-04-30 01:35 30.49854 -113.30270 33923 ft 487 kts 312°
2026-04-30 01:35 30.55126 -113.35189 33929 ft 485 kts 311°
2026-04-30 01:36 30.60373 -113.40094 33926 ft 484 kts 311°
2026-04-30 01:36 30.65607 -113.44996 33926 ft 483 kts 311°
2026-04-30 01:37 30.70841 -113.49907 33933 ft 484 kts 311°
2026-04-30 01:37 30.76084 -113.54832 33927 ft 485 kts 311°
2026-04-30 01:38 30.81335 -113.59770 33929 ft 486 kts 311°
2026-04-30 01:38 30.86587 -113.64716 33919 ft 486 kts 311°
2026-04-30 01:39 30.91846 -113.69676 33939 ft 487 kts 311°
2026-04-30 01:39 30.97108 -113.74646 33926 ft 487 kts 311°
2026-04-30 01:40 31.02372 -113.79625 33920 ft 487 kts 311°
2026-04-30 01:40 31.07637 -113.84612 33921 ft 487 kts 311°
2026-04-30 01:41 31.12896 -113.89601 33914 ft 487 kts 311°
2026-04-30 01:41 31.18156 -113.94598 33911 ft 487 kts 311°
2026-04-30 01:42 31.23413 -113.99600 33912 ft 487 kts 311°
2026-04-30 01:42 31.28664 -114.04604 33912 ft 487 kts 311°
2026-04-30 01:43 31.33917 -114.09616 33912 ft 488 kts 311°
2026-04-30 01:43 31.39178 -114.14647 33919 ft 489 kts 311°
2026-04-30 01:44 31.44446 -114.19690 33909 ft 490 kts 311°
2026-04-30 01:44 31.49719 -114.24743 33895 ft 490 kts 310°
2026-04-30 01:45 31.54993 -114.29806 33939 ft 490 kts 310°
2026-04-30 01:45 31.60278 -114.34889 33918 ft 492 kts 310°
2026-04-30 01:46 31.65577 -114.39994 33907 ft 494 kts 311°
2026-04-30 01:46 31.70900 -114.45131 33911 ft 497 kts 311°
2026-04-30 01:47 31.76252 -114.50298 33922 ft 499 kts 311°
2026-04-30 01:47 31.81625 -114.55495 33925 ft 501 kts 311°
2026-04-30 01:48 31.86969 -114.60671 33919 ft 501 kts 311°
2026-04-30 01:48 31.92349 -114.65891 33917 ft 501 kts 311°
2026-04-30 01:49 31.97724 -114.71113 33953 ft 501 kts 310°
2026-04-30 01:49 32.03101 -114.76350 33918 ft 502 kts 310°